Location: Unspecified
(52.1971°N, 0.0000°E)
Time: 03:50:58
(UTC+00:00)

YUBILEINY - Pass Details

Date: 23 December 2019
Orbit: 1478 x 1509 km, 82.5° (Epoch: 17 January)

Event Time Altitude Azimuth Distance (km) Brightness Sun altitude
Rises 19:40:05 0° 175° (S) 4,601 ? -33.6°
Reaches altitude 10° 19:42:58 10° 173° (S) 3,621 ? -34.1°
Enters shadow 19:43:27 12° 172° (S) 3,462 ? -34.2°
Exits shadow 19:59:15 14° 15° (NNE) 3,338 ? -36.6°
Drops below altitude 10° 20:00:08 10° 14° (NNE) 3,629 ? -36.7°
Sets 20:03:02 0° 12° (NNE) 4,613 ? -37.1°
